Home   Weather   Zielona Góra   Past weeks

Flag for Poland Past Weather in Zielona Góra, Poland — Yesterday and Last 2 Weeks

Now
81 °F

Overcast.


Feels Like: 79 °F
Forecast: 62 / 81 °F
Wind: 3 mph from South

Location: Zielona Gora

Current Time: May 28, 2017 at 8:44:34 pm

Latest Report: May 28, 2017 at 7:00 pm


Visibility: 31 mi

Pressure: 30.03 "Hg

Humidity: 27%

Dew Point: 44 °F

Location of Zielona GóraLocation

Past Weather in Zielona Góra — Graph

°F

Zielona Góra Temperature Yesterday

Maximum temperature yesterday: 73 °F (at 5:00 pm)
Minimum temperature yesterday: 55 °F (at 5:00 am)
Average temperature yesterday: 65 °F

High & Low Weather Summary for the Past Weeks

 TemperatureHumidityPressure
High83 °F (May 28, 6:00 pm)100% (May 15, 5:00 am)30.44 "Hg (May 15, 5:00 am)
Low49 °F (May 25, 5:00 am)24% (May 28, 5:00 pm)29.75 "Hg (May 19, 7:00 pm)
Average62 °F62%30.13 "Hg
* Reported May 13 7:00 pm — May 28 7:00 pm, Zielona Góra. Weather by CustomWeather, © 2017

Note: Actual official high and low records may vary slightly from our data, if they occured in-between our weather recording intervals... More about our weather records

Advertising

Zielona Góra Weather History for the Previous 24 Hours

Scroll right to see more
 ConditionsComfort  
Time TempWeatherWind HumidityBarometerVisibility
7:00 pm
Sun, May 28
81 °FOvercast.3 mph27%30.03 "Hg31 mi
6:00 pm83 °FOvercast.3 mph26%30.04 "Hg25 mi
5:00 pm81 °FPartly sunny.3 mph24%30.06 "Hg31 mi
4:00 pm82 °FScattered clouds.5 mph26%30.07 "Hg31 mi
3:00 pm82 °FScattered clouds.5 mph31%30.09 "Hg31 mi
2:00 pm80 °FPartly sunny.5 mph33%30.11 "Hg31 mi
1:00 pm79 °FPassing clouds.3 mph35%30.14 "Hg31 mi
12:00 pm77 °FPassing clouds.2 mph40%30.15 "Hg31 mi
11:00 am74 °FPassing clouds.3 mph45%30.17 "Hg31 mi
10:00 am71 °FPassing clouds.3 mph47%30.18 "Hg25 mi
9:00 am67 °FSunny.3 mph56%30.20 "Hg25 mi
8:00 am64 °FSunny.2 mph57%30.20 "Hg25 mi
7:00 am61 °FSunny.2 mph63%30.21 "Hg22 mi
6:00 am56 °FSunny.2 mph70%30.22 "Hg22 mi
5:00 am57 °FSunny.3 mph66%30.20 "Hg25 mi
4:00 am57 °FClear.3 mph66%30.21 "Hg31 mi
3:00 am58 °FClear.3 mph63%30.22 "Hg31 mi
2:00 am60 °FClear.3 mph59%30.23 "Hg31 mi
1:00 am60 °FClear.2 mph58%30.23 "Hg31 mi
12:00 am62 °FClear.3 mph54%30.23 "Hg31 mi
11:00 pm
Sat, May 27
63 °FClear.2 mph51%30.23 "Hg31 mi
10:00 pm63 °FClear.1 mph53%30.22 "Hg31 mi
9:00 pm66 °FPassing clouds.2 mph46%30.21 "Hg31 mi
8:00 pm71 °FSunny.2 mph38%30.19 "Hg31 mi
Weather by CustomWeather, © 2017

See weather overviewHow to use our weather pages